This is the latest recevied weather packets stored in our database for station/object TF3VP-10. If no packets are shown the sender has not sent any weather packets the latest 10 day(s).
| Time | Temp. | Humidity | Pressure | Rain* | Wind** | Luminosity | Snow |
|---|---|---|---|---|---|---|---|
| 1778229679 | 1.67° C | 42% | 1037.7 hPa | - | - | - | - |
| 1778228779 | 2.22° C | 42% | 1037.7 hPa | - | - | - | - |
| 1778227879 | 2.22° C | 39% | 1037.6 hPa | - | - | - | - |
| 1778226979 | 2.22° C | 42% | 1037.8 hPa | - | - | - | - |
| 1778226079 | 1.67° C | 45% | 1037.7 hPa | - | - | - | - |
| 1778225179 | 1.11° C | 44% | 1037.8 hPa | - | - | - | - |
| 1778224279 | 0° C | 46% | 1037.6 hPa | - | - | - | - |
| 1778223379 | -0.56° C | 49% | 1037.5 hPa | - | - | - | - |
| 1778222479 | -0.56° C | 53% | 1037.3 hPa | - | - | - | - |
| 1778221579 | -0.56° C | 49% | 1037.2 hPa | - | - | - | - |
| 1778220753 | 0° C | 50% | 1037.2 hPa | - | - | - | - |
| 1778220695 | 0° C | 50% | 1037.2 hPa | - | - | - | - |
| 1778219779 | 0° C | 49% | 1036.9 hPa | - | - | - | - |
| 1778218879 | 0° C | 45% | 1036.9 hPa | - | - | - | - |
| 1778217979 | 0° C | 46% | 1036.8 hPa | - | - | - | - |
| 1778217079 | 0° C | 47% | 1036.3 hPa | - | - | - | - |
| 1778216179 | 0° C | 50% | 1036.5 hPa | - | - | - | - |
| 1778215279 | 0° C | 48% | 1036.6 hPa | - | - | - | - |
| 1778214379 | 0° C | 49% | 1036.6 hPa | - | - | - | - |
| 1778213479 | 0° C | 44% | 1036.6 hPa | - | - | - | - |
| 1778212579 | 0° C | 46% | 1036.5 hPa | - | - | - | - |
| 1778211679 | 0° C | 45% | 1036.3 hPa | - | - | - | - |
| 1778210779 | 0° C | 45% | 1036.2 hPa | - | - | - | - |
| 1778209879 | 0° C | 43% | 1036.3 hPa | - | - | - | - |
| 1778208979 | 0° C | 43% | 1036.4 hPa | - | - | - | - |
* Rain since midnight (hover to see other rain measurements)
** Current wind speed in m/s (hover to see current wind gust speed)